(50893) = 2000 GX41

Discovered at Socorro on 2000-04-05 by LINEAR.

Orbit

Orbit type: Main Belt

Note: WebGL enabled browser required.

epoch2024-03-31.0
epoch JD2460400.5
perihelion date2023-07-14.30428
perihelion JD2460139.80428
argument of perihelion (°)185.84380
ascending node (°)205.37525
inclination (°)10.13118
eccentricity0.1208182
perihelion distance (AU)2.6137774
Tisserand w.r.t. Jupiter3.2
ΔV w.r.t. Earth (km/sec)10.6
semimajor axis (AU)2.9729658
mean anomaly (°)50.12483
mean daily motion (°/day)0.19227330
aphelion distance (AU)3.332
period (years)5.13
P-vector [x]0.85587233
P-vector [y]0.48134945
P-vector [z]0.18916990
Q-vector [x]-0.51166404
Q-vector [y]0.84137129
Q-vector [z]0.17405246
absolute magnitude14.64
phase slope0.15
uncertainty0
referenceMPEC 2024-F50
observations used1368
oppositions21
arc length (days)9645
first opposition used1997
last opposition used2024
residual rms (arc-secs)0.67
perturbers coarse indicatorM-v
perturbers precise indicator003Ek
first observation date used1997-10-22.0
last observation date used2024-03-19.0
computer nameMPCLINUX
JD of orbit computation2456760.716541
perihelion JD uncertainty (days)1.4103E-04
argument of perihelion uncertainty (°)4.2066E-05
ascending node uncertainty (°)3.1799E-05
inclination uncertainty (°)8.2156E-06
eccentricity uncertainty 6.8980E-08
perihelion distance uncertainty (AU)2.0901E-07
Minimum Orbit Intersection Distances (in AU)
for orbit epoch: 2460400.5, reference: E2024-GH2
Mercury2.28272
Venus1.88986
Earth1.6195
Mars1.16408
Jupiter2.10073
Saturn6.22496
Uranus15.2066
Neptune27.2083

Observations

1375 total observations over interval: 1997 10 22.67350 – 2024 03 19.287093
These data are available for download (format description).

Date (UT) J2000 RA J2000 Dec Magn Location Ref
1997 10 22.67350 01 31 11.35 +09 21 22.2 17.8   327 – Peking Observatory, Xinglong Station MPS 20909
1997 10 22.67840 01 31 11.09 +09 21 20.9   327 – Peking Observatory, Xinglong Station MPS 20909
1997 10 22.68281 01 31 10.87 +09 21 18.2   327 – Peking Observatory, Xinglong Station MPS 20909
1997 10 30.17154 01 26 02.04 +08 18 28.8   704 – Lincoln Laboratory ETS, New Mexico MPS 20909
1997 10 30.18888 01 26 01.38 +08 18 19.9   704 – Lincoln Laboratory ETS, New Mexico MPS 20909
1997 10 30.20617 01 26 00.70 +08 18 11.0   704 – Lincoln Laboratory ETS, New Mexico MPS 20909
1997 10 30.22354 01 25 59.94 +08 18 02.2   704 – Lincoln Laboratory ETS, New Mexico MPS 20909
1999 01 15.28326 08 44 59.38 +03 00 33.0 18.5 R 699 – Lowell Observatory-LONEOS MPS 57044
1999 01 15.29858 08 44 58.67 +03 00 33.6   699 – Lowell Observatory-LONEOS MPS 57044
1999 01 15.31390 08 44 58.02 +03 00 35.3   699 – Lowell Observatory-LONEOS MPS 57044
2000 04 05.34787 13 26 44.19 -10 16 47.9 19.1   704 – Lincoln Laboratory ETS, New Mexico MPS 12742
2000 04 05.36243 13 26 43.54 -10 16 41.9 19.5   704 – Lincoln Laboratory ETS, New Mexico MPS 12742
2000 04 05.37690 13 26 42.90 -10 16 37.0 19.3   704 – Lincoln Laboratory ETS, New Mexico MPS 12742
2000 04 05.39137 13 26 42.28 -10 16 30.7 19.0   704 – Lincoln Laboratory ETS, New Mexico MPS 12742
2000 04 05.40598 13 26 41.67 -10 16 25.1 19.0   704 – Lincoln Laboratory ETS, New Mexico MPS 12742
2000 04 06.33771 13 26 01.75 -10 10 14.5 18.9   704 – Lincoln Laboratory ETS, New Mexico MPS 12742
2000 04 06.35176 13 26 01.03 -10 10 08.9 19.7   704 – Lincoln Laboratory ETS, New Mexico MPS 12742
2000 04 06.36595 13 26 00.48 -10 10 03.1 19.0   704 – Lincoln Laboratory ETS, New Mexico MPS 12742
2000 04 06.38000 13 25 59.90 -10 09 57.6 19.1   704 – Lincoln Laboratory ETS, New Mexico MPS 12742
2000 04 07.27600 13 25 21.34 -10 04 00.2 18.6   704 – Lincoln Laboratory ETS, New Mexico MPS 14275
2000 04 07.29002 13 25 20.74 -10 03 53.4 18.9   704 – Lincoln Laboratory ETS, New Mexico MPS 14275
2000 04 07.30404 13 25 20.19 -10 03 47.0 19.2   704 – Lincoln Laboratory ETS, New Mexico MPS 14275
2000 04 07.31814 13 25 19.52 -10 03 41.7 19.3   704 – Lincoln Laboratory ETS, New Mexico MPS 14275
2000 04 26.21484 13 12 01.34 -07 56 47.0 19.6 V 691 – Steward Observatory, Kitt Peak-Spacewatch MPS 14275
2000 04 26.23583 13 12 00.50 -07 56 38.9 19.9 V 691 – Steward Observatory, Kitt Peak-Spacewatch MPS 14275
2000 04 26.25680 13 11 59.66 -07 56 30.7 20.1 V 691 – Steward Observatory, Kitt Peak-Spacewatch MPS 14275
2000 04 29.18066 13 10 08.93 -07 37 57.4 19.9   704 – Lincoln Laboratory ETS, New Mexico MPS 14275
2000 04 29.19274 13 10 08.53 -07 37 53.3 19.7   704 – Lincoln Laboratory ETS, New Mexico MPS 14275
2000 04 29.20482 13 10 08.00 -07 37 49.7 19.8   704 – Lincoln Laboratory ETS, New Mexico MPS 14275
2000 04 29.21691 13 10 07.52 -07 37 45.5 19.8   704 – Lincoln Laboratory ETS, New Mexico MPS 14275
2000 05 02.21661 13 08 19.99 -07 19 23.7 19.8 V 691 – Steward Observatory, Kitt Peak-Spacewatch MPS 15734
2000 05 02.23829 13 08 19.23 -07 19 16.0 19.9 V 691 – Steward Observatory, Kitt Peak-Spacewatch MPS 15734
2000 05 02.26032 13 08 18.42 -07 19 08.2 19.8 V 691 – Steward Observatory, Kitt Peak-Spacewatch MPS 15734
2000 05 11.14583 13 03 45.27 -06 29 50.2 20.1 V 691 – Steward Observatory, Kitt Peak-Spacewatch MPS 14275
2000 05 11.16662 13 03 44.71 -06 29 44.0 20.0 V 691 – Steward Observatory, Kitt Peak-Spacewatch MPS 14275
2000 05 11.18753 13 03 44.12 -06 29 37.9 20.0 V 691 – Steward Observatory, Kitt Peak-Spacewatch MPS 14275
2002 08 04.37198 00 46 47.38 +12 10 50.3 19.1   704 – Lincoln Laboratory ETS, New Mexico MPS 59754
2002 08 04.40173 00 46 47.79 +12 10 53.4 20.0   704 – Lincoln Laboratory ETS, New Mexico MPS 59754
2002 08 04.41658 00 46 48.14 +12 10 54.5 20.0   704 – Lincoln Laboratory ETS, New Mexico MPS 59754
2002 08 04.43142 00 46 48.37 +12 10 56.4 18.9   704 – Lincoln Laboratory ETS, New Mexico MPS 59754
2002 09 06.26912 00 44 34.00 +11 12 06.6 18.6   704 – Lincoln Laboratory ETS, New Mexico MPS 61033
2002 09 06.28303 00 44 33.60 +11 12 02.6 18.7   704 – Lincoln Laboratory ETS, New Mexico MPS 61033
2002 09 06.29688 00 44 33.19 +11 11 58.1 19.3   704 – Lincoln Laboratory ETS, New Mexico MPS 61033
2002 09 06.31071 00 44 32.83 +11 11 53.8 19.4   704 – Lincoln Laboratory ETS, New Mexico MPS 61033
2002 09 06.32475 00 44 32.45 +11 11 49.7 19.2   704 – Lincoln Laboratory ETS, New Mexico MPS 61033
2002 10 04.25739 00 27 24.44 +07 48 40.7 18.6   704 – Lincoln Laboratory ETS, New Mexico MPS 63005
2002 10 04.27308 00 27 23.79 +07 48 32.8 18.3   704 – Lincoln Laboratory ETS, New Mexico MPS 63005
2002 10 04.28871 00 27 23.09 +07 48 24.4 18.1   704 – Lincoln Laboratory ETS, New Mexico MPS 63005
2002 10 04.30438 00 27 22.39 +07 48 16.7 18.7   704 – Lincoln Laboratory ETS, New Mexico MPS 63005
2002 10 04.32011 00 27 21.71 +07 48 08.1 18.1   704 – Lincoln Laboratory ETS, New Mexico MPS 63005
2002 10 12.24972 00 22 01.09 +06 38 05.5 18.8   704 – Lincoln Laboratory ETS, New Mexico MPS 63005
2002 10 12.26620 00 22 00.42 +06 37 57.1 18.7   704 – Lincoln Laboratory ETS, New Mexico MPS 63005
2002 10 12.28279 00 21 59.77 +06 37 48.1 18.7   704 – Lincoln Laboratory ETS, New Mexico MPS 63005
2002 10 12.29951 00 21 59.06 +06 37 39.6 18.5   704 – Lincoln Laboratory ETS, New Mexico MPS 63005
2002 10 12.31598 00 21 58.42 +06 37 30.9 18.4   704 – Lincoln Laboratory ETS, New Mexico MPS 63005
2002 10 24.50821 00 15 08.48 +04 55 04.8 19.2   608 – Haleakala-AMOS MPS 65643
2002 10 24.51894 00 15 08.16 +04 55 00.0 19.9   608 – Haleakala-AMOS MPS 65643
2002 10 24.52954 00 15 07.91 +04 54 54.8 19.6   608 – Haleakala-AMOS MPS 65643
2002 10 28.42378 00 13 29.15 +04 25 22.8 19.3   608 – Haleakala-AMOS MPS 65643
2002 10 28.43476 00 13 28.88 +04 25 18.3 19.2   608 – Haleakala-AMOS MPS 65643
2002 10 28.44533 00 13 28.63 +04 25 13.6 19.1   608 – Haleakala-AMOS MPS 65643
2002 10 31.14467 00 12 31.34 +04 06 01.2 18.4 R 699 – Lowell Observatory-LONEOS MPS 65643
2002 10 31.16130 00 12 31.02 +04 05 54.9   699 – Lowell Observatory-LONEOS MPS 65643
2002 10 31.17063 00 12 30.79 +04 05 49.8 18.6   704 – Lincoln Laboratory ETS, New Mexico MPS 65643
2002 10 31.17799 00 12 30.69 +04 05 47.7   699 – Lowell Observatory-LONEOS MPS 65643
2002 10 31.18783 00 12 30.43 +04 05 42.1 19.1   704 – Lincoln Laboratory ETS, New Mexico MPS 65643
2002 10 31.19467 00 12 30.30 +04 05 40.4   699 – Lowell Observatory-LONEOS MPS 65643
2002 10 31.20513 00 12 30.00 +04 05 35.2 19.4   704 – Lincoln Laboratory ETS, New Mexico MPS 65643
2002 10 31.22231 00 12 29.66 +04 05 28.3 19.1   704 – Lincoln Laboratory ETS, New Mexico MPS 65643
2002 10 31.23940 00 12 29.29 +04 05 20.4 18.8   704 – Lincoln Laboratory ETS, New Mexico MPS 65643
2002 11 05.14978 00 11 09.97 +03 33 28.3 20.2 R 683 – Goodricke-Pigott Observatory, Tucson MPS 65643
2002 11 05.15977 00 11 09.84 +03 33 23.7 19.5 R 683 – Goodricke-Pigott Observatory, Tucson MPS 65643
2002 11 05.17435 00 11 09.65 +03 33 19.0 19.2 R 683 – Goodricke-Pigott Observatory, Tucson MPS 65643
2002 11 06.15688 00 10 57.78 +03 27 27.1 18.7   704 – Lincoln Laboratory ETS, New Mexico MPS 65643
2002 11 06.17332 00 10 57.56 +03 27 21.0 19.3   704 – Lincoln Laboratory ETS, New Mexico MPS 65643
2002 11 06.18975 00 10 57.34 +03 27 15.5 19.9   704 – Lincoln Laboratory ETS, New Mexico MPS 65643
2002 11 06.22268 00 10 56.95 +03 27 03.5 19.7   704 – Lincoln Laboratory ETS, New Mexico MPS 65643
2002 11 21.07439 00 10 48.63 +02 20 27.5 19.6   644 – Palomar Mountain/NEAT MPS 69365
2002 11 21.09590 00 10 48.80 +02 20 23.5 19.5   644 – Palomar Mountain/NEAT MPS 69365
2002 11 21.11717 00 10 48.98 +02 20 19.3 19.3   644 – Palomar Mountain/NEAT MPS 69365
2002 12 05.07225 00 15 24.49 +01 56 15.7 19.1   704 – Lincoln Laboratory ETS, New Mexico MPS 69365
2002 12 05.08761 00 15 24.91 +01 56 17.0 20.4   704 – Lincoln Laboratory ETS, New Mexico MPS 69365
2002 12 05.10300 00 15 25.27 +01 56 16.0 19.9   704 – Lincoln Laboratory ETS, New Mexico MPS 69365
2002 12 05.11818 00 15 25.79 +01 56 15.5 19.3   704 – Lincoln Laboratory ETS, New Mexico MPS 69365
2002 12 05.13335 00 15 26.18 +01 56 14.4 19.3   704 – Lincoln Laboratory ETS, New Mexico MPS 69365
